Wind_Speed
16 16 17 17 17 17 18 19 19 20 19 18 17 16 15 15 14 13 13 13 14 15 15 16 16 18 19 20 22 24 28 26 20 16 9 3 6 5 2 3 2 0 2 4 9 7 8 10 7 5 7 7 3 4 6 6 5 5 6 7 7 9 9 9 9 8 8 9 11 11 14 17 11 4 5 8 12 13 13 13 11 10 9 9 9 8 9 8
16 16 17 17 17 17 18 19 19 20 20 18 17 16 15 14 14 13 13 13 14 15 15 15 16 17 18 20 21 24 28 25 19 14 3 3 3 1 1 2 2 1 3 8 8 6 8 4 2 2 7 4 1 3 4 4 5 5 6 7 7 8 8 8 8 8 8 9 10 11 14 16 15 8 4 7 10 11 12 11 11 11 8 7 8 7 6 5
16 16 17 17 17 17 18 19 19 19 20 19 17 15 14 14 14 13 13 14 14 15 15 15 16 16 17 19 20 23 23 20 14 6 4 3 0 2 2 2 2 1 4 10 8 10 10 9 7 5 8 4 2 4 6 5 4 6 6 6 7 8 9 9 10 9 9 9 10 11 13 15 16 12 6 10 12 10 9 8 8 10 8 6 6 5 4 2
16 17 17 17 17 17 18 19 19 19 20 19 17 15 14 13 13 13 13 14 14 15 15 15 16 16 17 17 20 21 17 13 6 4 6 2 2 2 3 3 1 1 4 11 14 13 9 9 8 6 9 4 3 4 8 7 5 7 6 7 8 9 9 11 10 8 8 8 9 11 14 15 14 13 11 12 10 8 6 5 6 7 7 6 4 3 2 3
16 17 17 18 17 18 18 19 19 19 19 19 17 15 14 13 12 13 13 13 14 14 15 15 16 16 16 16 18 17 11 6 3 6 6 2 3 3 4 3 1 1 6 13 15 14 10 10 8 6 9 3 5 5 7 6 4 5 8 9 9 9 9 11 8 7 9 8 9 12 13 13 13 15 15 13 8 4 4 4 6 6 6 6 5 4 4 4
17 17 18 18 18 18 18 19 19 19 19 18 16 14 14 13 12 12 13 13 13 13 14 14 15 17 17 16 16 10 6 4 4 3 4 3 3 3 5 4 2 3 8 13 16 14 10 11 8 5 6 2 7 6 6 6 5 5 8 9 10 11 10 10 8 10 10 8 10 12 12 11 13 15 16 16 9 4 5 4 5 4 4 5 5 5 5 3
17 18 18 19 19 19 19 19 19 19 19 17 16 14 13 13 12 12 12 12 12 12 13 13 14 17 18 16 11 5 8 5 4 4 3 3 2 3 4 5 4 4 8 12 15 12 9 12 7 6 7 3 5 2 4 4 7 6 6 9 10 11 11 11 10 11 9 9 11 11 11 12 13 13 13 17 16 14 11 6 4 4 4 4 1 4 6 6
17 18 19 19 20 20 20 20 20 19 18 17 16 14 13 12 12 12 12 12 12 11 11 12 13 15 18 16 7 6 9 2 7 5 4 3 1 4 4 5 6 7 10 12 12 11 10 11 10 8 8 6 2 3 5 2 6 8 6 8 8 11 12 10 10 9 7 8 9 9 11 12 14 13 12 15 15 17 18 13 10 8 6 5 5 8 8 7
17 18 19 19 20 20 21 20 20 20 18 16 15 13 12 12 12 12 11 11 11 10 10 11 11 12 15 11 7 8 2 8 6 3 5 3 1 4 5 6 8 9 11 12 11 11 9 9 10 8 10 7 4 6 5 2 5 7 5 7 7 10 9 8 10 11 9 5 4 7 10 9 10 11 11 12 11 12 16 17 17 16 15 12 10 9 7 6
17 18 19 19 20 20 21 21 20 20 18 16 14 12 12 12 13 12 11 11 10 9 9 10 10 11 12 8 9 7 4 9 4 3 5 4 4 4 7 8 9 9 11 11 10 11 6 7 9 9 10 7 2 5 3 2 5 6 6 8 6 7 7 7 10 10 9 5 3 5 7 6 6 7 7 8 8 8 10 10 11 10 8 9 7 5 4 5
18 18 19 19 20 20 21 21 21 20 18 16 14 11 11 12 13 13 11 10 9 9 8 9 9 11 12 9 9 5 5 5 4 6 6 6 6 7 9 10 10 10 10 10 11 11 8 8 10 9 7 5 4 1 5 3 3 6 5 6 6 6 7 6 8 9 7 5 3 3 5 7 8 8 8 6 6 6 7 8 8 7 5 5 6 5 4 4
18 19 19 20 20 20 21 21 21 19 17 16 13 11 12 12 13 13 12 10 8 7 7 8 8 9 10 8 10 8 2 3 3 5 7 7 7 8 9 10 10 11 11 11 12 13 13 11 11 11 8 7 7 1 6 1 4 6 1 2 7 4 2 4 6 8 6 5 4 3 4 7 9 8 8 6 6 8 7 6 6 5 3 3 5 5 3 4
19 19 20 20 20 20 20 21 20 19 17 15 13 12 12 12 12 12 12 10 7 7 7 7 7 8 8 6 11 10 4 4 4 3 5 7 9 9 10 11 11 12 11 12 12 13 13 12 12 12 10 10 7 5 2 5 4 6 2 0 5 2 3 5 6 7 8 7 5 4 2 6 7 6 7 6 6 8 5 4 4 3 3 3 4 3 3 5
19 20 20 20 20 20 20 20 20 19 16 14 13 12 12 12 12 11 11 9 7 6 6 8 8 7 5 8 14 8 5 4 5 7 8 8 11 11 12 12 12 12 11 12 12 12 13 13 13 11 9 10 6 4 2 3 2 4 5 1 0 0 4 7 9 9 8 9 9 4 2 5 6 6 7 6 5 5 2 4 5 3 4 3 3 2 2 6
19 20 20 20 20 19 20 20 19 18 16 14 13 13 13 12 11 11 10 9 6 5 7 10 8 5 5 10 13 5 8 8 9 11 10 10 12 12 12 13 12 12 11 12 12 12 13 13 12 10 9 9 6 4 0 3 5 3 2 4 6 4 5 8 10 10 9 9 11 4 3 5 6 8 8 6 5 4 3 4 6 5 5 4 3 4 3 5
19 20 20 19 19 19 19 18 18 17 15 13 13 13 12 12 11 10 9 8 5 5 7 8 7 9 6 5 2 4 9 10 12 13 13 12 13 12 13 13 12 12 12 12 12 12 12 12 9 9 10 6 5 2 1 2 2 5 5 5 10 9 4 8 10 10 11 10 9 6 2 6 5 9 9 5 7 5 7 4 6 4 4 4 4 4 4 5
19 20 19 19 19 18 18 17 17 16 13 13 13 12 11 11 10 9 8 6 5 6 7 9 7 7 8 6 3 5 10 11 11 12 13 14 14 14 15 13 10 11 13 12 13 13 11 10 8 7 8 7 5 3 5 5 3 7 7 3 11 12 4 7 10 10 12 9 7 4 3 7 6 9 10 7 8 5 6 4 6 4 2 2 3 3 5 5
20 19 19 18 18 17 17 16 16 14 12 13 13 11 10 9 9 8 7 4 3 5 9 11 10 6 7 11 12 9 11 12 10 9 11 12 14 14 15 13 8 9 11 11 12 11 9 7 7 8 7 7 6 5 6 4 3 4 3 5 5 10 5 5 7 10 13 9 4 5 5 8 7 8 9 7 8 4 3 3 5 5 2 1 3 2 3 6
20 19 18 17 17 16 15 15 14 13 12 13 12 11 11 9 8 6 7 7 4 5 5 6 9 6 3 7 13 8 3 3 5 7 9 10 11 14 15 13 10 11 10 8 9 10 8 7 7 8 7 7 7 7 5 4 6 9 5 6 5 0 2 6 7 10 12 7 7 9 5 8 9 9 8 6 8 6 4 3 3 5 4 1 3 1 1 4
19 18 18 17 16 15 14 14 13 12 12 13 11 10 8 6 4 3 6 9 10 11 10 4 11 13 9 4 9 4 1 2 5 8 11 11 11 12 13 12 11 11 10 9 10 9 8 8 8 9 9 10 9 5 6 8 7 12 9 8 5 4 2 7 8 10 8 3 9 13 9 9 10 11 10 8 8 6 6 6 4 4 4 2 1 1 1 4
19 18 17 16 16 15 13 12 11 10 12 12 9 7 5 6 5 2 2 8 14 18 18 12 11 15 14 7 2 2 4 7 10 11 12 12 12 11 10 11 12 10 10 13 12 8 8 8 10 11 11 13 11 9 7 7 9 12 10 7 5 4 1 7 8 9 6 2 8 14 11 9 10 10 11 10 9 8 7 7 6 5 5 4 3 3 1 3
18 17 17 17 15 14 13 11 10 9 10 9 6 8 6 9 7 6 7 9 11 16 18 16 15 14 14 11 3 2 6 8 11 12 12 12 13 11 9 11 12 11 11 13 11 9 9 9 12 12 12 15 11 7 9 10 8 10 9 7 5 3 3 7 6 6 4 2 5 9 7 8 12 12 12 11 10 8 5 5 6 6 7 7 6 4 3 4
18 17 17 16 15 14 12 10 9 10 10 7 8 10 8 9 8 9 8 8 10 13 15 15 16 14 13 12 9 8 8 9 9 10 13 13 12 12 11 12 13 13 13 13 12 9 9 9 10 11 12 17 13 6 10 9 8 9 7 8 6 1 3 1 4 5 5 3 3 5 5 7 11 10 10 10 9 7 3 2 3 5 6 6 6 6 5 5
18 17 16 15 16 14 12 10 9 11 10 9 13 11 9 9 9 11 8 7 8 10 13 15 15 13 14 13 10 12 11 9 9 10 13 14 12 12 12 14 14 13 14 15 16 13 13 11 9 12 16 18 11 5 9 8 7 8 6 9 7 4 4 1 5 6 6 5 5 5 5 5 9 10 10 8 8 8 6 3 2 3 5 6 6 7 6 5
18 17 15 15 15 13 12 11 9 9 8 10 14 9 6 8 9 10 8 6 7 9 12 15 12 11 17 14 7 8 10 10 11 12 11 14 12 11 11 11 11 12 15 18 18 14 13 15 14 14 17 15 7 4 10 8 6 7 6 8 7 9 11 5 2 4 4 4 6 6 5 3 9 11 10 8 9 9 7 7 5 2 4 6 7 6 6 5
19 17 14 14 14 13 10 5 4 8 9 9 5 3 6 7 8 10 7 5 6 7 10 10 9 10 15 13 7 7 10 10 11 13 13 13 14 11 10 9 9 12 15 15 13 9 10 15 15 14 19 17 7 6 12 11 9 6 4 9 9 7 12 10 6 6 3 3 6 8 6 1 4 6 8 10 11 11 9 9 9 5 4 7 7 6 6 6
19 17 14 13 13 11 6 4 8 10 7 2 4 5 7 7 9 9 5 5 5 7 10 7 6 10 11 11 11 10 7 4 8 15 15 11 13 12 12 11 10 11 12 9 8 8 11 15 13 15 21 16 6 7 11 10 9 5 1 5 10 10 11 11 10 7 5 4 4 8 8 2 2 4 9 11 10 11 11 11 11 8 8 8 6 6 6 6
18 17 13 12 11 9 6 8 12 10 6 8 7 8 8 7 9 6 5 5 2 6 8 5 4 8 9 10 13 14 8 6 5 14 16 11 11 10 12 14 14 14 15 11 8 10 13 16 15 17 18 10 6 9 12 13 11 9 7 5 6 11 13 11 10 8 8 7 1 4 8 0 5 5 9 10 9 11 12 13 13 11 11 10 9 8 8 8
18 17 13 10 8 6 6 9 11 10 9 11 9 8 9 9 8 4 5 5 3 4 4 5 4 7 10 11 13 15 12 10 7 9 15 13 12 10 10 14 17 16 17 15 12 12 12 15 15 16 12 8 10 11 13 15 13 11 7 5 7 10 12 11 9 8 7 7 4 5 9 3 4 4 7 8 9 10 11 12 12 13 13 11 10 8 8 9
18 16 13 9 5 4 7 9 11 10 10 11 10 10 11 8 6 5 6 3 4 5 5 5 5 10 12 11 12 14 14 13 8 5 8 9 11 11 10 11 14 14 13 15 17 15 14 14 10 9 10 9 11 11 14 16 14 13 8 5 9 10 10 10 6 6 7 6 6 10 12 6 0 3 6 7 9 9 8 11 12 13 12 10 8 8 12 9
17 16 13 8 4 4 6 5 3 6 8 11 11 10 10 5 4 7 5 1 2 6 7 7 9 11 14 14 10 12 14 14 10 7 6 6 8 11 9 9 8 9 11 12 14 16 18 17 9 7 10 12 11 10 14 14 10 11 7 5 8 7 7 7 2 5 4 5 7 12 16 8 0 4 8 8 9 8 6 11 14 12 11 10 8 12 11 6
17 16 13 10 8 9 12 6 6 9 9 10 10 8 7 4 6 7 4 2 2 5 6 8 10 10 14 15 12 12 14 12 12 11 9 8 8 9 10 9 7 8 11 10 10 12 15 16 15 12 11 11 12 10 11 11 7 7 7 7 7 6 7 5 2 2 4 6 8 13 14 5 5 5 8 9 8 6 5 9 13 12 10 9 12 14 6 6
17 16 13 11 10 13 14 11 9 11 10 9 8 5 5 5 6 8 8 5 3 3 2 5 10 11 13 14 12 13 14 12 13 12 11 11 9 10 13 14 13 10 9 10 10 10 10 13 17 17 10 11 13 10 8 8 7 7 7 7 7 7 6 4 4 6 6 7 9 11 10 1 5 5 6 7 5 2 1 7 12 11 10 11 15 12 7 6
17 15 13 11 13 14 12 11 10 9 10 8 6 5 7 8 7 9 10 5 5 3 1 2 6 9 11 11 11 12 11 11 14 13 10 11 9 9 12 15 17 13 9 10 9 9 11 9 12 15 11 11 15 13 12 11 10 9 8 7 8 7 7 6 6 6 7 9 9 9 6 1 3 2 4 5 6 6 6 10 11 7 9 14 14 10 7 6
16 14 13 12 13 12 10 11 10 7 8 6 6 6 7 8 7 7 6 1 4 3 4 4 3 7 9 10 11 13 11 9 14 13 10 10 9 9 9 12 17 15 11 9 7 8 11 10 11 14 15 15 16 15 13 13 11 10 9 8 8 6 6 6 8 10 11 10 7 4 3 6 7 6 6 6 6 8 7 9 9 8 11 14 12 10 7 6
13 9 9 11 12 8 7 8 8 7 7 6 6 7 8 9 7 2 4 6 4 2 0 4 6 7 7 7 9 13 12 10 12 12 9 11 11 11 11 10 15 17 13 9 6 7 9 9 11 15 17 19 17 14 14 12 9 8 10 9 6 6 7 7 8 11 11 8 6 3 2 6 6 5 6 6 6 7 6 7 8 8 11 13 10 8 6 5
11 7 8 11 11 8 8 9 9 8 7 6 7 8 7 9 8 5 4 6 5 4 4 3 7 7 7 7 7 10 12 11 10 9 8 10 10 12 13 11 13 18 17 13 8 8 9 8 9 14 14 14 12 13 15 14 11 8 9 7 5 7 9 7 6 7 7 6 7 3 5 6 2 1 3 5 6 7 7 7 7 7 10 12 10 7 8 8
11 10 12 12 9 9 10 10 10 8 6 6 9 10 10 10 9 7 5 5 6 4 6 7 4 5 8 7 8 11 11 9 9 8 8 8 7 10 13 11 10 15 18 17 10 7 7 9 9 11 11 10 9 10 11 12 14 13 11 8 7 7 6 5 4 6 6 6 8 2 8 5 0 2 5 5 6 7 7 6 8 9 9 10 9 8 10 8
9 8 9 9 11 11 11 11 9 7 6 7 8 7 9 11 10 8 5 5 7 6 7 8 4 4 9 8 6 11 12 9 8 8 7 7 6 10 12 10 9 12 14 15 11 7 6 6 7 10 9 8 9 7 8 9 11 14 13 11 9 8 7 5 4 5 7 8 8 2 7 5 1 3 2 3 6 9 9 8 9 10 9 8 10 8 7 4
8 6 3 12 15 12 12 11 8 7 6 8 8 7 9 10 8 6 4 4 6 6 7 7 5 4 7 8 7 7 11 11 10 8 7 7 6 7 10 10 10 11 10 9 10 8 6 5 6 10 7 5 6 8 9 9 8 10 11 9 9 7 7 7 6 7 8 7 8 6 0 3 3 5 5 2 5 8 9 7 6 8 9 12 13 8 7 6
8 7 4 14 16 15 14 8 6 6 7 8 9 11 9 7 6 3 2 3 6 7 7 8 8 7 7 8 10 7 7 10 10 8 6 8 8 5 7 10 9 8 9 8 9 8 6 6 6 9 8 6 8 8 9 10 10 9 8 9 10 9 7 8 7 8 8 7 8 5 1 2 1 2 4 6 6 6 7 6 5 5 10 15 12 8 7 7
8 5 6 15 16 15 12 7 6 7 7 7 10 12 4 4 7 7 5 6 8 7 7 8 8 9 8 8 9 9 4 7 9 10 7 8 10 8 8 12 10 9 8 8 9 9 7 6 7 9 10 9 9 9 11 13 14 13 11 9 9 9 9 8 7 8 9 10 8 1 5 3 2 3 5 7 6 6 6 5 4 7 12 14 9 5 6 7
7 3 9 15 16 14 9 6 7 7 8 9 13 13 5 2 7 8 7 9 8 7 7 7 8 9 8 8 9 9 7 4 7 10 10 8 11 10 7 9 9 8 9 6 7 10 7 6 7 8 9 12 11 9 8 7 7 10 9 9 10 11 10 7 6 7 7 5 4 2 5 2 2 3 4 7 8 7 6 5 7 11 10 9 7 5 7 9
6 3 8 13 15 13 8 7 8 8 9 11 13 12 8 6 7 8 8 8 7 7 8 8 9 10 8 8 9 7 7 4 4 9 10 7 7 6 8 7 4 6 7 5 4 6 6 6 7 7 6 8 11 9 6 3 4 5 7 9 12 13 15 13 9 8 6 5 5 3 3 3 3 2 5 8 7 5 6 7 10 11 8 6 6 7 10 10
7 5 6 9 12 11 8 8 8 7 7 11 13 12 10 8 8 10 11 10 9 9 8 7 8 10 8 6 8 8 8 7 5 7 9 7 6 6 8 10 6 8 8 6 5 4 4 6 7 6 8 7 7 5 1 1 3 5 8 12 13 14 16 12 7 8 4 6 8 4 5 6 6 6 7 8 6 6 7 7 10 12 9 5 6 9 10 10
6 4 6 7 8 8 7 9 10 9 9 8 7 9 10 9 8 11 12 11 12 11 10 8 8 9 7 6 8 8 9 11 8 7 8 8 9 9 9 11 9 7 3 1 5 5 4 5 6 8 9 9 7 3 2 5 7 7 9 10 10 11 12 9 7 7 4 5 7 5 7 8 8 8 8 7 6 7 7 7 11 13 9 6 7 9 10 10
4 5 4 6 6 6 8 9 10 10 9 8 5 4 8 10 9 9 12 10 11 11 10 9 9 9 7 8 9 9 10 11 10 9 9 10 11 7 9 9 9 6 3 3 7 5 4 6 8 10 13 13 12 6 4 10 10 10 12 8 5 8 9 8 6 5 7 4 3 4 7 9 9 7 7 6 6 6 5 8 13 13 8 6 8 10 11 11
5 6 3 4 6 7 8 9 11 12 12 10 6 4 7 10 9 9 10 9 11 13 10 9 11 13 11 10 8 6 7 9 9 10 10 9 12 9 8 10 10 7 4 7 9 4 4 7 9 11 13 14 14 9 7 10 9 9 11 9 7 6 8 9 8 11 11 6 4 5 9 11 9 7 7 6 6 6 8 12 14 11 9 8 9 11 12 11
6 6 3 2 5 6 5 6 10 12 12 10 7 6 9 9 10 10 8 8 10 11 10 10 11 13 14 12 8 5 5 7 7 10 10 9 12 12 6 10 10 9 9 9 8 6 5 7 10 12 10 12 14 11 9 9 8 8 9 9 9 3 10 13 10 12 16 16 13 11 11 10 5 5 7 7 6 9 12 14 10 6 8 9 9 11 12 11
5 5 4 4 6 6 4 4 5 7 7 6 6 8 10 11 12 11 9 9 9 10 12 12 11 12 14 11 8 6 5 7 7 6 7 7 8 10 5 6 7 9 11 9 8 7 6 7 11 11 10 11 13 11 10 9 9 7 5 10 10 3 9 9 7 10 16 17 14 11 7 3 3 7 10 9 8 10 12 12 8 6 8 9 8 10 12 12
10 8 6 6 6 5 6 5 5 6 6 6 7 8 9 11 13 12 9 9 10 9 9 11 11 10 8 5 6 7 6 7 9 6 6 7 7 7 7 4 5 8 10 8 8 8 8 8 9 8 9 6 3 6 9 9 10 2 12 17 15 7 7 8 9 11 11 11 12 10 5 3 5 8 9 8 8 9 10 9 8 7 8 8 9 12 12 11
10 9 7 7 6 5 5 5 6 6 6 6 8 9 10 12 13 10 6 6 9 8 6 9 10 6 3 3 4 7 10 9 8 8 8 9 10 9 9 9 10 9 8 7 8 8 7 7 6 6 7 1 2 8 10 9 7 1 10 12 12 10 9 11 13 13 10 7 6 6 5 6 8 8 8 8 6 7 8 6 6 8 9 9 9 12 12 11
Wind_Direction
351 352 354 354 353 353 351 350 349 347 346 347 347 346 346 345 348 348 350 352 351 350 346 345 342 338 337 332 332 332 327 328 320 295 260 284 343 339 336 25 11 190 119 215 220 224 236 224 229 254 260 263 283 356 330 312 357 42 52 51 47 48 47 46 44 42 51 56 61 56 62 90 101 75 112 96 81 91 88 82 85 82 81 96 112 135 142 144
346 349 351 351 352 351 350 349 347 346 344 343 343 345 344 342 345 346 348 349 349 348 345 344 340 338 335 331 331 331 329 325 304 284 293 20 330 351 23 34 23 135 177 213 221 269 294 302 308 259 255 265 31 341 328 338 16 48 56 58 57 60 59 54 58 53 55 61 65 70 66 87 120 137 134 96 82 90 93 93 100 96 95 106 119 138 136 151
343 347 347 348 349 348 347 346 345 344 341 340 341 342 341 342 343 344 345 347 347 346 344 341 339 337 334 331 327 331 333 318 293 282 44 40 252 108 120 58 32 292 231 236 269 317 329 331 323 299 275 293 30 346 17 22 17 43 56 70 73 78 78 66 59 50 49 58 60 67 67 81 116 130 115 96 86 78 83 96 111 110 122 129 125 123 122 145
341 343 345 346 346 345 344 343 344 342 339 338 338 339 339 341 340 342 342 343 345 343 344 340 338 335 332 328 322 332 329 299 291 63 49 68 171 144 135 82 49 315 284 261 286 311 315 301 298 304 289 298 57 36 36 23 22 48 54 70 77 77 78 70 61 55 51 52 60 63 64 68 83 96 96 91 84 79 73 72 102 121 132 138 133 129 148 157
338 339 342 343 343 343 341 341 341 339 338 336 335 337 335 338 340 340 338 340 343 342 343 339 337 333 330 326 319 327 320 291 83 75 29 70 172 160 136 112 165 297 279 269 288 293 286 282 267 268 280 322 45 42 47 29 29 63 65 67 78 78 72 69 53 55 62 48 57 63 64 67 70 77 83 82 76 80 87 89 108 121 131 136 143 169 191 173
336 336 338 339 340 340 339 339 339 337 337 333 333 334 331 336 336 335 335 336 339 341 342 339 337 332 328 323 316 315 289 301 85 95 22 61 191 180 138 133 183 253 269 277 287 281 282 281 266 265 276 41 53 40 48 45 50 64 78 73 71 76 73 72 53 49 58 46 54 64 67 74 77 79 85 95 110 122 98 101 115 118 121 124 140 177 186 164
334 334 334 336 337 337 338 337 337 336 334 332 331 331 330 331 331 333 331 332 336 339 341 339 337 333 330 326 317 270 252 277 95 111 68 80 197 195 151 150 196 242 265 276 282 292 314 303 325 341 296 49 80 73 44 44 77 77 81 78 71 77 76 75 66 54 44 36 54 67 72 74 75 79 86 98 120 132 117 94 82 75 56 63 107 209 197 176
332 332 332 333 334 335 336 335 336 333 332 330 328 329 328 326 326 327 327 328 332 336 339 338 338 335 333 332 319 258 255 194 105 98 91 95 183 193 172 170 211 239 261 277 289 308 322 322 359 344 315 28 16 21 41 339 89 80 73 85 88 86 85 93 97 83 62 43 54 72 79 80 82 86 85 91 111 130 133 139 146 150 157 162 203 216 201 180
331 331 330 331 331 333 333 334 334 331 329 329 327 327 324 322 322 321 324 324 326 333 337 335 336 333 329 325 300 284 296 99 101 82 93 103 157 189 189 196 218 233 262 281 290 299 317 340 359 337 327 353 345 41 57 281 70 77 92 100 96 95 107 118 103 89 81 64 52 79 89 92 96 94 84 88 106 128 138 148 157 162 166 164 178 192 173 154
330 329 328 328 329 331 331 332 333 330 328 326 326 324 320 320 317 317 320 318 323 328 330 333 335 332 322 296 277 280 116 106 96 82 104 136 148 183 206 219 225 232 266 286 289 295 317 339 337 327 313 311 345 57 45 332 81 101 103 93 90 106 113 100 93 94 90 82 57 65 76 65 73 90 84 90 111 131 129 129 136 137 138 135 141 151 126 121
329 328 327 327 328 330 330 330 331 330 326 324 326 322 318 317 313 315 314 313 318 319 326 329 328 330 318 291 277 278 121 125 130 127 151 166 169 196 215 227 238 247 269 285 287 298 320 343 334 314 309 332 321 347 46 22 141 116 101 110 112 113 98 99 120 119 106 97 100 98 94 66 57 78 93 112 122 109 86 75 81 82 89 108 107 103 91 91
328 327 326 326 327 329 329 328 329 329 325 323 323 318 316 313 310 311 308 310 312 312 323 316 321 333 314 285 259 254 199 205 177 149 176 184 202 216 226 233 241 256 274 286 294 310 325 338 322 306 321 330 302 336 67 251 176 96 125 150 94 84 98 154 145 115 109 103 118 161 126 82 69 85 98 122 117 91 76 64 69 76 87 98 95 92 76 73
328 326 325 326 327 328 327 326 327 327 325 321 318 316 313 310 307 305 304 306 304 306 311 302 313 316 298 279 256 240 207 215 196 195 215 214 228 228 233 239 243 254 269 280 291 307 311 313 305 308 313 301 322 37 52 237 173 112 185 190 65 6 278 188 142 120 127 123 151 196 147 80 80 109 117 128 125 107 109 100 103 112 89 72 75 79 79 81
327 325 325 326 326 327 326 325 325 325 323 318 313 312 310 307 304 301 300 298 297 300 294 291 298 296 264 261 268 242 182 238 226 226 237 228 234 235 231 237 245 250 260 269 278 288 291 295 293 293 284 280 323 4 255 266 251 144 133 135 211 226 257 210 159 149 144 142 177 195 71 99 114 136 118 102 87 76 111 141 132 116 85 79 78 92 101 85
327 326 326 326 327 327 325 323 323 322 320 314 310 310 308 305 300 296 293 289 293 289 285 289 274 261 264 259 266 224 179 229 237 230 232 226 229 235 231 229 240 249 254 263 271 276 281 288 285 284 277 250 255 278 350 34 324 300 133 189 215 213 222 192 158 160 158 156 183 190 73 105 124 124 99 81 77 53 250 177 135 129 129 136 140 175 158 105
328 327 326 327 327 325 323 321 320 320 317 311 308 308 304 300 296 288 286 285 286 276 279 287 235 220 270 291 265 173 189 218 235 230 223 225 228 234 238 230 230 243 249 254 264 269 269 275 273 281 288 256 225 253 184 187 248 253 238 203 199 220 222 159 158 173 164 156 183 209 100 100 125 125 117 141 150 184 226 174 119 130 147 142 151 178 139 98
330 329 329 328 326 323 322 319 318 318 315 311 308 307 303 297 290 277 275 275 276 267 257 277 274 242 261 287 286 225 221 224 225 221 216 220 226 234 242 238 225 233 244 246 251 258 257 261 265 261 261 252 232 202 214 228 218 217 234 233 188 200 220 158 174 176 162 168 186 206 101 107 138 139 143 174 162 192 225 152 123 116 94 121 135 150 125 110
333 331 330 329 326 324 321 318 320 317 310 308 304 305 311 302 288 278 271 261 265 267 253 263 279 268 245 251 251 238 230 220 199 205 218 215 219 231 242 249 245 236 245 245 239 244 247 246 259 264 249 241 244 231 238 254 286 286 326 323 214 189 205 148 161 163 161 189 160 105 97 123 150 152 157 178 152 173 249 132 127 127 125 138 101 91 125 128
336 334 333 331 328 325 321 322 320 313 309 306 302 307 310 295 280 262 240 230 210 226 234 201 203 229 296 240 225 227 236 186 166 202 223 216 213 225 236 247 255 249 249 247 232 227 239 243 240 261 261 243 239 238 273 353 330 320 329 276 288 90 122 95 117 148 159 198 133 119 163 158 166 164 158 173 155 178 217 149 127 129 136 112 81 45 76 109
338 335 335 331 330 326 323 324 317 313 310 308 315 311 298 282 267 210 208 225 224 242 266 226 195 229 278 247 184 178 22 199 220 227 222 220 219 220 226 234 241 247 250 252 245 220 224 251 243 243 248 254 274 302 347 2 314 296 290 263 306 8 66 84 105 131 144 208 128 143 185 172 171 167 163 171 162 191 206 171 164 139 123 90 90 262 49 86
340 336 336 334 331 325 324 324 314 311 309 315 328 303 303 358 342 343 304 250 230 237 257 263 238 238 257 270 122 83 283 228 219 228 220 212 216 219 213 219 230 235 233 244 258 245 226 245 250 256 266 268 293 342 330 297 281 288 291 279 309 323 123 99 99 118 147 229 137 155 178 171 173 165 167 175 171 197 202 177 174 159 158 151 175 233 157 109
342 339 337 335 330 324 325 321 308 305 305 312 300 265 306 8 348 325 318 287 253 237 239 244 246 245 251 267 277 283 282 243 216 219 214 202 208 216 205 207 225 235 229 232 247 252 239 238 247 260 278 273 281 325 293 273 281 286 284 281 289 324 76 105 104 113 166 237 147 173 192 176 174 167 171 179 179 196 203 190 184 178 185 166 162 199 180 158
344 341 338 336 331 325 322 314 304 297 289 277 257 268 318 349 334 324 300 283 282 254 235 226 231 239 239 244 233 217 245 250 233 218 201 199 208 210 217 219 221 231 235 231 230 241 245 236 239 244 256 265 267 283 275 269 266 260 273 293 285 38 51 101 126 139 191 211 144 202 226 166 165 167 174 185 186 185 194 220 210 197 187 166 167 183 186 184
345 342 340 337 330 324 318 307 293 281 271 255 257 275 325 334 327 328 305 274 276 256 238 224 222 232 231 233 226 213 225 238 247 241 200 197 215 207 219 235 228 226 233 237 236 237 247 248 241 237 240 249 256 267 269 273 273 263 264 273 284 358 329 311 125 158 197 196 169 210 236 167 166 175 177 186 189 184 181 185 263 236 171 163 183 181 175 188
346 343 339 337 330 325 317 301 273 259 248 242 251 265 319 329 331 329 313 276 260 243 231 221 212 221 225 224 214 209 229 234 239 255 217 191 214 220 215 232 236 231 226 233 244 241 241 249 250 255 260 257 255 273 266 268 281 286 295 295 332 350 317 319 128 194 205 193 191 217 257 191 171 176 173 175 184 191 187 185 200 195 152 170 191 183 160 161
346 343 339 336 329 326 320 300 285 281 259 241 250 310 320 329 339 322 300 265 253 216 193 192 182 193 212 205 183 210 240 238 222 244 245 201 203 231 228 220 228 238 234 228 240 253 244 243 246 263 273 267 258 268 265 273 282 282 339 333 334 317 292 295 273 247 236 217 193 205 238 162 158 190 176 175 189 192 189 197 192 170 182 194 190 181 155 148
343 342 339 334 331 332 322 305 320 308 282 299 8 337 320 333 330 313 281 254 246 185 158 157 160 170 197 190 177 205 238 268 207 213 236 209 187 219 232 226 221 228 247 244 227 239 250 248 236 241 254 256 254 262 256 258 272 281 335 299 293 288 286 294 296 284 277 277 171 195 231 147 109 229 185 180 200 192 186 202 195 184 205 204 192 188 157 136
340 340 338 332 330 328 302 299 309 305 328 1 343 314 324 324 305 293 265 259 202 151 152 151 139 155 199 204 190 209 233 287 240 193 206 198 176 208 226 233 235 220 226 243 243 229 232 241 238 238 249 262 268 264 265 259 253 256 246 236 276 297 299 304 303 292 288 299 274 233 272 226 124 179 183 190 210 200 194 202 199 199 207 200 200 194 149 117
337 337 335 331 331 329 313 301 288 283 319 338 326 314 316 303 290 262 260 268 150 155 161 148 151 166 203 215 200 215 225 244 252 174 184 192 182 212 238 236 243 240 224 225 244 246 234 232 233 241 247 249 246 249 263 265 263 270 287 327 311 288 283 281 275 280 296 299 299 308 307 315 108 144 180 194 210 212 203 198 201 204 202 196 195 178 120 82
335 332 331 331 336 351 324 288 269 279 304 316 317 310 296 282 274 242 233 244 170 173 140 142 190 186 197 208 201 211 218 227 234 149 175 202 189 206 250 247 242 255 241 224 233 245 256 251 235 247 259 255 250 242 242 246 264 294 322 326 285 266 261 263 276 323 318 295 315 323 302 285 158 200 206 195 207 220 198 183 201 206 194 189 179 129 91 73
331 326 325 317 295 303 289 262 291 316 307 311 313 299 283 258 246 254 230 208 209 166 145 170 193 186 195 205 204 203 212 227 224 178 186 214 196 199 230 245 233 240 244 237 229 227 243 253 246 240 253 272 284 266 252 249 257 287 296 277 277 282 269 258 337 17 319 287 307 294 278 274 78 204 208 200 208 219 191 179 194 195 183 179 139 94 90 121
326 320 313 299 281 265 258 265 342 327 309 312 304 280 271 239 224 247 232 186 200 178 184 195 186 191 200 204 215 205 199 224 229 209 205 205 208 212 214 222 216 214 228 237 234 223 227 239 246 242 227 243 270 271 266 265 254 256 264 268 273 278 276 275 330 315 255 271 275 273 277 294 79 122 167 185 201 218 225 192 179 174 180 163 107 94 128 179
322 314 303 294 283 266 261 277 302 307 310 303 284 263 257 251 234 235 232 215 143 129 202 190 175 191 200 199 217 213 194 208 223 218 213 210 217 214 206 218 226 222 222 225 231 235 228 222 230 242 232 210 229 250 258 257 247 229 227 245 259 266 279 286 281 271 274 280 264 273 292 305 104 95 128 149 153 140 138 153 153 165 173 135 107 119 167 169
316 305 296 290 281 270 265 264 259 281 304 284 257 249 240 249 247 233 237 218 118 109 207 177 167 191 207 205 210 214 203 204 215 215 211 211 223 218 203 212 224 231 231 225 229 232 232 228 217 222 226 211 212 225 244 254 255 244 229 230 247 262 273 277 280 278 281 282 269 273 299 79 114 88 94 101 103 90 89 120 135 152 139 113 112 135 147 141
313 299 289 280 275 273 262 250 241 254 282 264 240 244 235 242 243 233 261 335 103 171 183 156 203 209 206 211 212 217 218 212 211 213 217 217 220 224 213 204 210 222 230 226 234 236 234 244 235 217 210 213 216 213 225 247 256 257 251 231 234 258 271 278 283 278 276 289 305 314 9 79 105 123 114 106 110 96 93 125 134 135 126 116 123 134 130 146
312 296 279 264 255 257 245 231 221 224 247 248 237 241 234 245 264 295 330 351 14 322 44 151 215 227 206 205 220 219 216 215 209 206 216 222 223 228 227 210 198 206 222 228 223 236 246 245 235 229 216 208 216 214 209 224 241 257 257 244 243 255 259 266 261 260 271 289 308 310 101 102 106 111 99 99 118 110 105 130 135 135 136 129 125 125 121 126
307 267 256 253 231 212 207 200 196 209 233 246 241 247 248 257 289 339 351 335 339 322 306 246 206 212 211 198 209 217 207 205 208 207 215 220 224 228 231 230 203 196 213 233 229 221 242 254 238 237 224 196 205 225 213 208 220 242 254 258 265 246 248 271 274 274 291 294 292 308 104 111 96 95 114 120 140 137 121 125 140 160 154 135 122 114 104 90
303 267 262 255 208 178 186 185 190 209 225 241 245 258 270 276 299 333 356 332 310 275 267 270 222 207 229 207 185 199 203 202 200 203 223 225 211 211 224 240 218 197 205 219 233 238 247 271 264 246 230 190 197 233 227 211 213 232 255 268 274 264 262 281 292 293 288 272 282 355 97 109 63 127 146 167 168 143 126 141 164 176 170 138 112 89 80 75
285 271 261 218 174 168 177 177 193 218 226 235 241 249 256 259 269 289 317 317 297 277 260 267 257 232 253 250 196 183 190 208 212 198 212 222 192 190 207 221 215 208 206 207 222 251 258 271 274 260 240 195 187 209 232 236 220 222 242 251 251 263 280 279 260 264 268 273 284 293 114 119 71 64 96 187 169 139 140 166 170 171 170 124 91 81 88 124
251 261 217 159 158 163 166 174 201 219 225 234 243 248 248 254 254 253 273 275 268 270 270 280 285 254 256 272 273 216 186 200 226 215 195 197 183 182 200 215 216 203 194 207 227 238 237 231 256 270 256 196 206 215 212 235 243 226 224 232 241 253 271 269 254 256 269 285 291 286 316 89 52 14 8 70 122 119 134 156 168 177 155 105 92 111 146 167
245 257 173 150 157 158 159 184 213 213 230 238 247 256 265 298 305 298 322 284 265 271 279 291 298 300 299 295 293 273 187 183 220 231 211 200 200 203 207 212 223 205 183 202 226 232 234 227 241 265 255 212 222 227 209 216 245 259 240 222 226 230 244 258 258 257 258 260 274 295 13 97 98 358 20 71 94 104 122 145 169 160 115 97 104 140 158 159
258 255 154 152 163 164 168 205 214 211 236 236 240 252 275 356 295 284 290 262 245 246 253 266 276 285 293 286 290 298 249 186 203 221 230 214 205 215 208 190 197 219 217 207 208 217 235 243 243 258 267 257 229 215 220 221 223 241 253 244 235 233 235 242 248 255 255 257 269 351 97 108 69 42 49 75 95 103 107 127 122 93 88 90 99 131 146 142
244 208 141 154 171 181 197 224 214 220 238 241 249 256 260 267 254 255 262 251 236 226 232 254 268 266 270 265 273 296 290 229 197 216 230 222 210 210 191 169 176 206 226 228 205 199 209 237 250 254 271 285 277 245 236 247 237 241 255 264 264 267 269 265 266 277 281 282 295 49 87 90 54 46 62 83 86 83 86 85 72 71 79 87 89 114 125 114
245 221 150 164 181 193 218 232 215 218 222 228 246 257 263 271 261 254 253 244 232 227 227 234 246 245 248 259 263 273 281 261 202 226 240 233 218 191 145 141 174 204 212 227 211 184 186 207 233 254 259 268 270 248 203 192 247 253 265 272 272 277 281 285 295 299 316 23 30 36 87 122 145 151 116 100 93 93 94 87 85 89 92 95 109 125 119 110
270 239 156 167 189 199 229 247 247 258 248 234 233 237 247 248 236 241 252 254 242 238 242 237 240 242 234 244 258 255 265 273 248 237 242 237 238 217 164 151 178 224 220 208 214 212 200 197 199 229 249 242 242 248 200 205 241 237 244 252 254 256 259 268 286 275 267 59 54 65 107 115 136 143 117 103 109 116 104 93 97 100 98 109 133 131 121 121
277 236 164 163 191 207 232 250 262 276 279 271 247 230 241 246 229 218 226 247 249 242 253 253 250 258 246 241 258 250 250 262 259 251 249 242 240 221 170 147 174 223 281 344 252 255 248 227 207 210 241 263 271 298 330 266 264 272 263 253 252 262 271 278 287 290 303 54 62 89 120 124 130 124 105 103 115 116 114 106 91 87 91 123 142 131 124 126
273 271 209 172 182 210 226 236 246 250 258 279 289 244 238 246 247 215 198 218 238 233 247 259 255 257 240 224 239 242 241 245 243 252 265 264 261 225 150 151 189 186 50 318 255 262 268 245 231 219 228 251 265 272 250 239 248 271 283 291 287 287 298 285 278 358 19 18 51 96 116 112 104 103 115 133 133 114 101 88 85 92 113 141 138 129 125 126
241 277 266 170 178 201 212 218 226 234 242 253 267 284 263 246 241 224 193 202 227 222 222 233 236 245 247 238 237 238 247 249 238 243 249 252 266 254 165 172 205 173 152 245 238 230 265 255 246 240 233 235 244 253 257 252 254 264 277 292 286 297 360 8 2 23 35 49 71 81 93 96 108 146 157 144 120 101 82 72 79 102 133 149 146 137 130 130
245 277 294 221 218 219 220 223 224 230 235 237 241 259 268 260 249 239 210 201 220 221 222 230 226 229 238 243 246 242 251 261 248 241 241 234 256 264 200 174 209 200 193 231 236 210 236 260 259 261 257 240 235 241 251 256 259 260 270 285 279 300 53 45 20 31 55 70 73 69 73 82 101 125 114 100 93 91 86 84 89 122 151 156 152 140 135 135
260 294 310 287 271 262 259 247 239 242 239 240 246 244 250 256 252 247 229 212 216 211 214 231 234 226 226 228 237 236 236 259 267 262 260 251 260 279 259 182 206 209 197 217 232 196 191 241 253 257 257 237 226 232 245 255 260 264 323 332 308 328 73 59 31 49 72 84 89 86 81 84 75 78 87 95 98 90 90 103 128 166 168 159 147 142 142 135
262 288 300 286 283 282 269 242 226 241 238 227 232 234 241 247 246 249 241 222 229 229 212 224 239 237 232 234 251 260 256 259 266 270 272 264 265 283 278 235 216 205 192 207 226 196 188 225 239 248 252 239 236 262 258 254 255 288 37 9 338 346 61 55 43 58 84 110 124 122 119 130 113 101 94 84 82 92 101 120 148 163 165 161 151 146 141 130
289 303 292 271 273 282 272 248 229 239 243 233 227 220 222 231 235 243 244 221 238 258 243 241 258 272 274 236 237 284 301 300 295 299 298 290 281 275 266 263 261 234 193 200 223 207 201 224 235 244 251 256 357 292 278 268 258 29 51 22 358 11 44 57 56 59 66 85 123 123 108 117 120 113 99 84 82 104 117 138 157 154 155 155 149 143 136 130
Height
796 795 794 793 791 790 788 787 785 783 782 780 779 778 776 776 775 775 774 773 772 771 770 769 767 766 763 761 759 756 753 750 749 746 745 743 742 743 743 743 743 743 743 743 742 741 738 736 734 731 734 730 726 724 720 714 711 721 744 765 775 777 777 772 772 769 769 769 766 762 763 781 794 783 774 774 778 782 784 784 783 781 778 779 781 781 781 782
796 795 794 793 792 790 788 787 785 783 782 780 779 778 776 776 775 774 773 773 772 771 770 768 767 766 763 762 759 756 753 750 748 744 742 743 743 743 743 743 743 743 743 742 740 737 735 734 729 729 734 732 726 723 723 717 716 733 751 767 776 773 768 762 762 761 761 765 763 761 761 774 786 782 776 783 790 786 790 792 788 788 786 783 781 782 782 782
796 795 794 793 791 790 789 787 785 784 782 780 779 777 776 776 775 774 773 773 771 770 769 768 767 765 764 762 758 758 755 750 749 745 742 742 743 743 743 743 743 743 742 741 739 734 734 733 728 729 733 732 726 723 726 722 723 734 747 770 772 760 761 756 756 757 755 757 759 760 758 765 773 772 775 786 793 791 795 797 794 796 793 788 784 782 783 783
796 795 793 792 791 790 788 787 785 784 782 780 779 777 777 775 775 774 773 772 771 770 769 768 767 765 764 761 759 759 754 755 753 744 742 742 743 743 743 744 743 743 743 741 740 735 733 731 727 729 734 735 726 724 733 730 730 737 746 766 761 752 760 757 754 755 751 752 756 759 759 765 764 765 775 784 794 800 798 795 795 797 793 790 788 785 785 785
796 794 793 792 791 789 788 787 785 783 782 780 779 777 776 775 775 773 773 772 771 770 768 768 766 764 763 760 761 757 758 770 757 740 743 743 743 744 743 744 744 744 743 742 740 735 732 728 727 731 735 736 732 733 740 730 728 743 748 752 750 750 762 757 751 752 750 751 754 759 764 766 762 767 777 784 795 801 796 793 792 793 792 791 789 788 787 787
796 794 793 792 790 789 788 786 785 783 782 779 779 777 776 776 774 773 773 772 771 770 769 767 766 764 763 760 760 756 765 774 750 739 745 742 743 744 743 745 744 744 744 744 739 732 730 726 727 736 735 735 740 743 742 728 727 750 754 746 747 750 758 757 752 753 752 755 759 761 762 761 767 775 777 783 793 793 790 790 791 792 791 790 789 788 788 788
795 793 793 791 790 789 787 786 785 783 781 779 778 777 776 775 774 774 772 771 771 770 769 767 766 764 761 759 759 756 762 759 741 741 744 741 745 743 743 745 743 745 744 743 738 732 731 729 731 735 735 737 742 742 738 731 730 750 757 750 749 750 755 757 756 757 756 759 759 758 760 764 773 778 775 781 787 787 790 790 792 795 793 790 789 788 788 788
795 793 792 790 789 788 786 785 784 782 781 779 778 777 776 775 774 773 772 772 770 770 769 767 766 764 761 759 759 759 757 749 740 743 742 742 744 742 745 744 744 746 743 742 736 732 733 735 735 734 740 740 737 738 737 737 740 748 756 752 750 752 755 756 756 760 759 760 759 759 767 770 770 773 776 780 781 782 788 792 796 799 799 797 794 790 788 786
794 793 791 790 789 787 786 784 783 782 780 779 778 776 776 774 774 773 772 771 770 770 769 767 767 764 764 760 760 765 756 743 742 743 742 743 743 743 745 743 745 745 743 741 734 732 735 738 737 734 742 738 733 738 736 745 753 749 750 750 751 755 755 754 756 759 761 761 761 767 773 770 764 768 779 778 775 776 778 786 791 792 794 794 793 789 784 783
794 792 791 790 788 787 785 783 783 781 779 779 777 776 776 774 773 772 772 771 770 770 768 768 767 764 765 761 764 770 752 740 744 743 743 744 743 744 744 744 745 744 742 739 733 731 731 735 732 726 734 735 732 737 737 745 750 742 744 748 751 755 752 753 759 759 761 762 763 771 777 770 760 769 786 779 769 770 772 777 779 780 783 782 784 782 779 780
793 792 791 789 787 786 784 783 782 780 779 777 777 776 775 774 773 772 771 771 770 769 769 768 766 765 764 761 768 766 746 740 745 742 745 745 743 745 744 745 744 742 741 737 734 729 727 729 725 727 736 736 734 737 736 737 738 738 744 751 752 753 754 755 761 761 762 767 765 769 776 772 767 776 786 777 768 769 772 777 776 777 779 777 778 778 777 778
793 791 790 788 787 785 784 782 780 779 778 777 777 775 774 774 772 772 771 770 769 769 769 767 767 766 764 763 763 754 742 743 744 743 745 744 744 745 743 745 743 742 740 736 735 729 729 727 726 737 739 734 738 743 741 731 733 739 745 760 761 757 762 760 759 760 765 772 764 766 782 785 782 784 780 771 768 770 776 781 780 780 779 776 776 777 777 777
792 791 789 788 786 785 783 781 779 779 777 776 776 774 774 773 771 771 770 770 769 769 768 767 767 765 768 766 750 741 741 742 742 743 744 744 744 743 743 744 742 742 740 738 736 732 732 729 729 736 732 734 741 738 735 728 733 745 752 767 773 775 775 759 757 762 767 774 762 769 798 800 789 783 775 769 768 772 780 782 782 781 778 777 776 777 778 777
791 790 789 787 786 784 783 780 779 778 776 776 775 774 773 771 772 771 769 770 768 768 768 766 767 766 769 762 742 737 742 741 743 743 743 743 742 742 741 741 740 740 739 737 736 734 733 729 728 732 729 733 734 729 736 741 742 748 759 772 779 793 786 756 754 765 770 773 759 770 801 802 790 780 772 770 769 775 783 781 780 780 778 779 778 779 779 778
791 789 788 787 785 784 782 780 779 777 776 775 774 774 772 771 771 769 769 769 768 768 766 765 765 764 767 757 739 738 741 741 742 741 741 742 740 740 738 738 739 738 738 737 735 734 732 729 732 739 735 726 728 740 754 763 764 759 772 789 786 787 780 757 753 761 771 771 759 773 798 798 787 779 773 771 772 778 784 779 776 779 778 779 779 779 780 779
790 789 787 786 784 783 782 780 778 777 775 774 774 773 771 771 769 769 769 767 768 768 766 766 762 762 769 757 739 738 740 739 739 738 740 739 739 739 736 736 736 736 736 734 734 732 729 731 734 737 735 731 738 755 766 777 786 775 773 786 784 777 772 765 759 754 761 769 765 773 792 797 787 778 774 772 773 777 779 775 774 778 777 776 778 777 778 780
790 788 787 785 784 782 781 779 778 776 775 774 773 771 770 770 768 768 768 767 769 766 765 765 757 761 763 747 740 742 737 735 736 736 737 737 738 737 735 733 732 733 732 731 732 731 730 734 737 737 737 740 741 751 776 792 789 772 760 763 767 767 767 771 768 754 754 768 772 772 783 793 785 775 775 771 770 774 774 773 774 777 777 776 778 778 779 782
789 788 786 785 783 782 780 779 777 776 775 773 772 771 770 769 768 768 767 767 767 766 768 764 760 772 766 744 742 740 731 730 732 733 735 735 736 736 734 732 730 732 735 737 735 734 737 737 741 748 745 744 742 749 775 784 769 761 758 757 757 755 756 766 768 757 756 767 775 780 785 788 781 774 775 770 768 775 773 770 773 775 777 777 777 779 780 782
788 787 786 784 783 782 780 778 777 776 774 773 771 770 768 767 767 767 767 767 768 769 769 761 761 771 762 741 734 730 726 729 732 734 734 733 735 735 734 732 732 736 746 752 746 738 741 744 750 761 757 749 745 745 754 755 751 753 753 752 751 750 751 755 755 749 751 764 776 785 787 785 782 777 776 771 768 775 774 770 773 775 776 777 779 781 781 782
788 786 785 784 782 781 779 778 777 776 774 773 771 770 769 768 768 768 765 764 763 758 753 750 750 751 744 732 727 728 730 732 734 734 733 733 733 734 735 735 738 744 752 758 752 736 738 758 764 761 756 746 737 734 736 741 745 747 747 746 743 747 751 748 747 744 743 762 779 783 782 780 779 777 775 773 772 776 776 775 775 775 777 778 780 782 782 783
788 786 785 783 782 781 780 779 777 776 775 773 773 772 769 767 772 772 766 761 752 745 745 743 741 742 736 728 725 728 734 736 734 730 732 731 731 740 742 741 752 759 754 752 750 735 740 766 766 748 740 735 730 730 736 742 744 746 747 745 743 745 747 742 745 745 740 759 777 776 779 780 775 775 773 770 776 778 775 776 777 776 777 778 779 781 782 783
788 786 784 783 782 780 779 778 777 776 775 774 774 771 763 762 767 766 764 765 751 739 742 739 738 738 730 727 728 730 738 744 739 731 728 729 733 745 745 745 760 763 750 749 754 754 759 766 755 739 733 730 730 732 739 743 744 749 746 745 749 742 743 746 744 743 742 756 772 770 775 779 771 770 772 770 774 775 771 771 773 774 776 777 778 780 781 784
788 785 785 783 781 781 779 778 778 776 775 774 772 768 763 762 763 760 762 769 758 740 736 738 740 740 734 732 729 731 743 747 745 735 723 729 736 740 745 749 757 758 753 754 760 769 772 759 740 733 733 734 736 736 742 745 745 748 747 751 752 738 746 760 752 746 745 750 763 766 769 777 774 772 773 770 769 769 769 769 769 770 772 774 775 775 778 782
787 785 785 782 781 781 778 778 777 775 774 773 771 767 764 764 763 762 762 765 762 744 732 731 732 735 735 731 725 732 743 740 741 734 719 727 736 736 743 747 751 757 755 752 753 762 763 745 728 730 733 734 739 742 745 752 751 743 741 748 747 737 740 750 748 746 747 747 752 762 775 783 781 781 780 772 768 769 770 771 773 770 769 771 772 771 773 778
787 786 784 782 782 780 779 779 775 773 773 770 769 766 765 766 763 763 766 771 767 746 731 727 727 730 726 724 726 729 737 736 734 727 714 720 732 737 741 739 746 758 755 750 752 755 752 735 725 733 736 731 739 749 747 751 755 748 741 736 736 740 739 739 742 747 762 770 754 758 791 799 783 782 783 776 774 774 772 774 776 774 772 772 773 772 772 776
787 786 783 783 782 779 780 777 772 773 771 767 766 765 766 766 764 764 769 780 773 747 737 735 731 732 724 724 726 727 745 744 724 718 715 716 722 730 743 741 741 752 747 743 749 749 742 730 727 738 742 735 741 751 745 743 756 759 744 730 730 739 741 740 741 749 772 779 753 749 786 807 797 787 781 777 779 778 775 776 776 776 776 773 773 774 773 777
787 785 784 784 781 781 780 775 773 772 769 767 766 766 767 765 766 764 773 795 779 742 739 741 733 732 726 722 723 737 761 745 719 718 714 715 718 722 743 747 743 747 737 740 757 752 739 735 735 740 742 740 745 753 743 738 757 759 735 729 736 738 741 740 740 748 756 754 751 749 764 797 811 795 778 775 779 781 779 778 776 775 776 774 774 774 775 778
787 785 784 783 781 782 780 777 777 771 769 770 767 768 768 765 767 766 785 809 776 731 734 738 728 725 723 720 722 737 746 733 732 730 708 712 721 724 745 747 743 746 734 746 769 752 735 741 742 740 744 745 746 747 736 733 749 743 721 724 734 736 740 739 743 751 744 749 770 762 752 786 808 789 775 777 780 783 782 778 775 774 773 773 774 774 777 781
786 785 783 783 782 781 779 779 777 772 772 770 769 770 767 766 767 770 795 804 761 728 730 732 729 729 726 726 729 733 732 730 737 724 705 715 720 723 742 739 736 743 731 740 760 745 730 729 727 732 743 746 742 735 729 734 740 724 712 723 730 735 739 738 745 749 747 764 781 765 751 781 809 795 781 785 786 782 778 774 772 770 769 771 772 775 782 789
785 784 783 782 782 781 780 779 775 773 773 770 771 770 766 769 774 789 809 790 750 733 729 731 736 734 733 739 741 737 736 735 728 718 718 723 720 722 731 725 728 740 737 736 744 739 726 715 713 725 734 731 728 726 724 727 727 719 721 734 740 740 737 739 744 747 767 785 777 763 751 767 811 813 785 781 780 770 768 771 770 765 766 770 772 778 789 796
785 783 782 782 781 781 781 776 773 774 773 772 772 768 769 775 781 802 801 761 741 740 732 735 738 730 736 747 747 741 740 737 727 729 737 733 731 735 737 737 739 748 754 748 743 738 732 728 724 722 722 721 726 729 723 716 717 725 735 745 755 757 749 751 757 768 799 802 773 760 746 753 800 810 780 770 764 755 759 766 767 765 765 769 774 786 795 796
784 782 781 781 780 780 778 774 772 774 773 773 772 768 777 787 791 797 776 745 748 750 733 735 736 732 738 743 745 740 741 743 732 733 741 741 745 744 746 752 751 762 775 763 752 746 740 737 729 722 717 720 736 745 737 726 724 735 746 755 774 783 778 783 789 791 799 789 763 750 747 761 788 784 767 764 758 751 751 752 757 762 764 769 779 792 794 791
782 780 779 779 778 777 775 774 773 775 773 772 773 771 782 800 795 775 756 746 750 740 725 727 728 730 737 742 745 737 737 744 735 733 736 737 745 744 742 742 739 756 770 761 760 760 752 739 727 730 725 718 733 751 756 748 738 743 751 761 780 791 800 810 806 796 790 775 754 738 746 775 789 773 759 758 754 750 746 745 752 758 761 769 779 787 789 791
781 779 778 777 776 774 773 774 773 774 774 772 776 780 791 803 784 755 746 739 733 729 726 728 728 733 737 740 741 733 737 744 733 733 737 737 747 748 743 740 735 742 752 755 759 759 766 759 735 733 731 720 727 738 744 743 740 739 733 744 767 774 789 804 796 792 789 771 750 739 753 782 793 779 760 752 751 748 747 749 754 756 758 768 777 782 787 793
779 777 777 774 774 772 771 773 772 774 776 773 778 788 795 793 768 749 744 731 726 731 729 726 732 741 742 738 734 725 731 741 732 732 739 740 747 746 740 739 736 737 747 760 757 747 762 760 726 714 714 714 723 722 720 735 747 737 721 735 756 752 759 776 775 773 771 768 760 755 766 774 772 766 754 751 755 752 753 756 759 761 761 768 778 782 789 795
778 776 775 773 771 770 770 772 772 774 774 775 785 791 784 771 752 744 742 732 732 734 733 737 740 747 750 742 738 729 724 732 733 736 740 737 738 736 732 728 725 730 740 750 753 749 759 752 718 707 708 703 713 713 711 731 748 740 734 742 737 725 737 762 771 758 755 777 776 762 774 776 767 769 759 756 764 762 761 762 762 765 764 770 779 784 793 797
778 776 774 770 768 770 770 770 772 774 773 777 789 785 768 753 740 735 736 734 735 733 741 752 744 743 750 746 743 737 728 731 733 738 742 738 735 730 725 719 712 719 725 731 740 738 747 749 718 707 714 701 696 705 706 711 725 741 747 735 719 720 730 746 767 766 770 792 779 760 781 789 784 787 773 763 771 770 766 765 764 766 766 773 783 790 798 801
778 775 771 766 766 768 768 771 771 771 773 780 788 779 763 753 739 731 732 733 736 736 746 754 741 734 741 742 741 734 732 738 737 739 743 741 734 723 721 720 709 708 711 718 733 727 731 751 729 703 711 705 693 709 722 711 708 726 732 718 724 750 755 750 768 783 791 799 782 770 787 791 785 786 776 771 773 770 771 770 769 770 770 777 790 798 803 804
778 777 770 762 764 766 768 771 770 770 777 784 786 774 760 751 739 731 731 734 738 742 748 747 737 735 735 731 731 728 731 739 736 738 743 741 734 718 711 717 712 707 704 709 728 727 726 753 749 711 699 704 705 722 742 734 714 714 720 718 725 743 751 751 759 770 780 787 781 778 790 794 783 772 770 772 768 768 774 773 771 773 775 783 797 803 804 801
775 776 768 758 761 766 766 768 769 774 780 780 775 765 751 743 735 728 728 733 738 741 745 742 736 737 735 726 725 722 725 732 731 733 736 732 732 723 709 710 711 708 705 707 720 725 726 747 758 728 702 713 727 727 732 737 727 724 732 737 736 734 737 744 747 747 757 775 780 779 795 803 784 767 768 769 766 767 770 771 772 772 774 785 796 799 797 795
772 775 767 756 761 764 764 771 774 774 777 772 765 758 748 741 736 732 730 732 735 734 736 740 739 739 737 734 729 718 717 729 729 729 731 724 728 729 711 703 707 707 712 720 724 726 730 740 752 744 727 729 730 712 707 717 721 724 728 732 735 735 740 756 762 747 741 757 763 772 801 808 780 766 767 765 767 768 766 771 774 772 775 786 793 795 794 794
773 775 764 756 762 762 763 774 772 767 770 766 757 750 745 743 742 740 736 734 737 735 732 736 739 739 737 736 731 719 716 726 729 729 728 720 720 721 704 694 701 705 712 724 723 717 722 733 745 747 734 721 709 696 695 701 704 712 716 715 718 723 732 754 768 753 739 742 741 758 798 801 771 763 765 763 766 767 767 771 772 774 782 790 795 795 794 794
771 769 760 757 760 759 766 775 770 765 764 756 746 739 737 741 743 742 739 737 738 737 737 738 737 736 735 730 728 726 722 724 726 724 723 718 711 705 695 691 699 704 711 721 720 712 719 736 749 750 735 716 701 692 690 692 699 714 717 710 713 717 715 724 735 734 739 748 747 768 805 802 774 765 764 764 766 767 770 771 773 784 794 797 800 798 794 795
764 759 755 758 759 758 768 774 768 764 758 750 747 743 737 737 740 742 743 740 737 736 739 739 734 733 731 726 726 728 727 729 729 720 716 717 707 693 690 695 701 708 712 716 713 712 726 741 751 761 761 749 735 724 717 713 716 725 724 715 714 714 711 716 719 725 744 755 754 776 806 800 776 767 766 768 770 771 773 772 775 790 802 804 801 797 795 797
763 758 754 755 756 758 765 763 757 758 753 747 748 746 742 740 737 738 740 738 732 731 736 734 727 725 724 724 727 726 724 729 732 722 715 715 706 693 691 698 703 706 706 704 701 706 725 736 744 764 777 773 764 754 743 734 727 725 723 718 715 713 715 723 728 738 753 757 758 775 794 791 777 772 772 773 775 777 778 776 778 789 802 805 800 796 797 799
767 763 759 758 756 756 758 753 752 758 754 749 748 745 745 745 736 729 734 738 732 728 731 729 723 724 726 729 735 734 727 724 726 724 720 717 710 696 690 696 703 705 704 702 699 705 722 730 732 748 759 756 751 741 731 730 732 732 726 718 715 713 712 719 733 746 748 753 770 779 778 783 784 779 778 778 777 780 780 780 785 793 801 803 799 798 799 799
769 764 756 758 760 760 759 753 752 755 749 748 750 745 744 747 740 731 730 734 731 728 731 729 725 731 734 733 738 739 731 725 724 725 723 718 707 694 689 695 702 704 706 705 702 710 730 736 731 735 740 736 731 725 720 724 730 731 727 722 719 717 719 726 738 745 742 757 785 781 768 783 792 783 782 781 778 781 782 784 791 798 800 800 798 799 800 801
767 758 742 743 755 760 758 752 749 748 745 745 746 745 745 745 743 738 732 730 728 727 733 736 732 731 731 729 734 737 734 732 731 727 725 720 712 703 700 701 703 703 706 709 705 711 734 742 730 727 731 726 721 719 719 721 725 725 725 726 724 724 731 737 738 739 745 766 787 781 774 786 791 782 781 779 777 783 788 791 795 796 797 797 798 800 802 804
758 754 743 738 745 748 746 742 741 743 743 743 744 746 748 747 743 735 728 730 733 727 729 739 736 728 725 723 727 736 738 740 740 730 721 719 717 712 710 712 709 701 705 714 710 709 730 741 729 725 730 725 720 719 718 720 725 725 724 724 723 725 734 740 742 744 755 771 782 782 784 788 785 780 780 779 779 782 787 793 794 792 794 797 799 802 804 805
758 756 753 749 745 742 740 739 740 744 743 743 748 747 744 744 743 732 722 728 738 732 727 734 732 723 721 720 724 733 731 729 734 728 719 721 722 716 713 714 710 704 706 716 714 710 728 740 728 725 734 729 719 718 719 722 726 730 733 732 727 726 734 741 745 752 766 779 783 784 789 792 785 780 780 781 779 779 785 792 792 791 795 798 802 804 803 805
755 750 750 756 755 747 744 741 741 747 749 746 748 746 742 742 737 731 723 718 724 728 724 726 728 721 718 722 727 729 721 717 721 717 712 716 718 714 711 706 704 709 713 716 716 714 726 736 727 726 741 738 723 723 726 722 724 736 748 750 743 739 743 748 751 756 767 778 782 785 792 795 787 779 780 782 780 782 788 792 793 794 797 800 803 803 802 804
754 750 747 754 759 752 746 743 742 747 748 741 737 736 737 736 727 727 732 722 715 718 718 720 725 725 728 735 734 726 718 713 711 706 703 705 704 702 703 699 697 704 710 714 718 716 721 732 730 732 748 746 732 732 731 728 743 762 760 754 752 746 745 751 758 760 760 765 776 785 789 787 781 778 785 790 788 788 790 790 792 794 795 798 800 800 802 804